www.pogodaiklimat.ru
ПОГОДА в Монтиселло
Время
и дата
13:56 07.02
14:56 07.02
15:56 07.02
16:56 07.02
17:56 07.02
18:56 07.02
19:56 07.02
20:56 07.02
21:56 07.02
22:56 07.02
23:56 07.02
00:43 08.02
00:56 08.02
01:06 08.02
01:18 08.02
01:56 08.02
02:26 08.02
02:56 08.02
03:19 08.02
03:56 08.02
04:56 08.02
05:56 08.02
06:56 08.02
07:56 08.02
08:56 08.02
09:56 08.02
10:17 08.02
10:48 08.02
10:56 08.02
11:56 08.02
12:56 08.02
13:56 08.02
14:56 08.02
15:56 08.02
16:56 08.02
17:56 08.02
18:56 08.02
19:56 08.02
20:56 08.02
21:56 08.02
22:56 08.02
23:56 08.02
00:56 09.02
01:56 09.02
02:56 09.02
03:56 09.02
04:56 09.02
05:56 09.02
Ветер
(напр.,м/с)
Видим. Явления Облачность Т
(С)
Тd
(С)
f
(%)
Тe
(С)
Тes
(С)
Комфортность P
(гПа)
Po
(гПа)
Тmin
(С)
Tmax
(С)
R
(мм)
R24
(мм)
S
(см)
Ю 5 16 км ясно +1.7 -7.8 49 -3 0 1022.0 969.5
Ю 5
{8}
16 км ясно +2.2 -6.7 52 -3 0 1022.0 969.5
Ю 3 16 км 5/0 3300 m
[Ac]
+1.7 -6.7 54 -2 -1 1021.9 969.1
Ю 5 16 км 10/0 2250 m
[Ac]
+1.1 -6.1 59 -4 -4 1021.1 968.5
Ю 3 16 км 8/8 1440 m
[Ac]
+0.6 -5.6 63 -4 -4 1021.4 968.5
штиль 0 16 км 10/10 1290 м +0.6 -5.0 66 0 0 1022.5 969.5 +0.6 +2.8
ЮВ 2 16 км 10/10 1350 м 0.0 -3.3 78 -3 -3 1021.3 968.5
штиль 0 16 км неопределенные осадки 10/10 1380 m
[Cb]
0.0 -1.7 88 -1 -1 1021.0 968.5
штиль 0 16 км 10/8 1650 m
[Ac]
-0.6 -2.2 89 -2 -2 1020.2 967.8 0.5
штиль 0 13 км 8/8 1950 м -1.1 -2.8 88 -2 -2 1019.2 966.9
штиль 0 6 км дымка 8/8 1260 м -1.1 -2.2 92 -2 -2 1018.9 966.6
штиль 0 3 км дымка ясно -2.0 -3.0 93 -3 -3 966.6
штиль 0 6 км дымка ясно -2.2 -2.8 96 -4 -4 1018.7 966.6 -2.2 +0.6 0.5
штиль 0 3 км дымка ясно -3.0 -3.0 100 -4 -4 966.2
штиль 0 6 км дымка ясно -3.0 -3.0 100 -4 -4 966.2
СЗ 2 6 км дымка 8/8 900 м -2.8 -2.8 100 -7 -7 1018.7 966.2
СЗ 2 8 км дымка 8/8 840 м -2.0 -2.0 100 -6 -6 966.2
З 2 6 км дымка 10/10 840 м -1.7 -1.7 100 -6 -6 1018.1 965.9
З 3 8 км дымка 8/8 900 м -2.0 -2.0 100 -7 -7 966.2
СЗ 3 8 км дымка 8/8 1080 м -1.1 -1.7 96 -6 -6 1018.2 966.2
З 4 6 км дымка 10/10 1140 м -0.6 -1.1 96 -6 -6 1018.8 966.6
З 4 10 км дымка ясно -0.6 -1.1 96 -6 -6 1019.2 966.9
З 4 11 км 10/10 1020 м -0.6 -1.1 96 -6 -6 1020.3 968.2 -2.8 0.5
З 4 16 км 10/10 960 м +1.1 -1.7 82 -4 -4 1021.4 969.1
СЗ 5
{8}
16 км 10/10 900 м +1.7 -2.8 72 -4 -4 1022.1 969.8
СЗ 6
{10}
16 км 10/10 900 м +2.8 -2.2 70 -3 -3 1022.7 970.4
З 6 16 км 10/10 840 м +3.0 -2.0 70 -2 -2 970.7
СЗ 6
{9}
16 км 10/10 900 м +3.0 -2.0 70 -2 -2 971.4
СЗ 4
{9}
16 км 10/10 900 м +3.3 -2.2 67 -1 -1 1023.8 971.4
СЗ 5
{9}
16 км 5/5 900 м +5.0 -2.8 57 +1 +2 1023.2 971.1
СЗ 5
{9}
16 км ясно +5.6 -2.8 55 +2 +5 1023.1 970.7 -0.6 +6.1
СЗ 6 16 км ясно +6.1 -3.9 49 +2 +4 1022.9 970.7
З 5
{8}
16 км ясно +7.2 -4.4 43 +4 +6 1023.2 971.1
З 5
{8}
16 км ясно +6.7 -5.0 43 +3 +5 1024.0 971.7
З 4 16 км ясно +5.6 -5.0 46 +2 +3 1024.4 972.0
СЗ 3 16 км ясно +3.9 -5.0 52 +1 +1 1025.3 973.0
З 3 16 км ясно +2.8 -5.0 56 -1 -1 1025.9 973.3 +2.2 +7.2
З 2 16 км ясно +1.1 -5.6 61 -2 -2 1026.3 973.6
СЗ 2 16 км ясно -0.6 -4.4 75 -4 -4 1026.6 974.0
СВ 2 16 км ясно -0.6 -5.0 72 -4 -4 1026.5 974.0
З 2 16 км ясно -1.7 -5.0 78 -5 -5 1026.3 973.6
штиль 0 16 км ясно -2.8 -5.6 81 -4 -4 1026.4 974.0
штиль 0 16 км ясно -2.2 -5.0 81 -3 -3 1026.7 974.3 -3.3 +2.8
штиль 0 16 км ясно -5.6 -6.7 92 -7 -7 1026.7 974.3
штиль 0 16 км ясно -5.0 -6.1 92 -6 -6 1025.4 973.0
В 2 16 км ясно -5.0 -6.1 92 -9 -9 1025.2 972.7
штиль 0 16 км ясно -4.4 -5.6 91 -6 -6 1024.7 972.4
Ю 2 16 км ясно -3.3 -4.4 92 -8 -8 1025.4 973.0
Местоположение метеостанции Sullivan County International Airport: широта 41.7000 долгота -74.8000 высота над уровнем моря 428 м.
В архиве по умолчанию представлена погода в Монтиселло за последние 1-2 суток. Обновление информации о фактической погоде в базе происходит ежечасно! Архивные данные за месяц целиком и за предыдущие месяцы Вы можете получить, выбрав интересующий диапазон дат из раскрывающегося списка и нажав кнопку "Ввод!".
Внимание! Архив погоды МЕТАР в базе сайта по станциям, не включенным в климатический монитор, хранится не более 60 дней. Нет смысла пытаться выбрать более раннюю дату.
*Определитесь, кто Вы:
Внимание! Время в таблицах - местное (без учета летнего времени). Для получения всемирного времени необходимо вычесть поправку, которая равна -5 ч.
Смотрите также архив погоды в соседних городах и на ближайших метеорологических станциях:
Партнеры нашего сайта:      
Пояснения к столбцам:
  • Ветер - указаны скорость ветра в м/с - средняя за 10 мин, порывы в срок и между сроками (в фигурных скобках) и направление, откуда дует ветер: С - северный,
  • СВ - северо-восточный, В - восточный, ЮВ - юго-восточный, Ю - южный, ЮЗ - юго-западный, З - западный, СЗ - северо-западный.
  • Видимость - горизонтальная дальность видимости в метрах или километрах. При видимости от 1 до 10 км при отсутствии осадков обычно наблюдается дымка, при ухудшении видимости до 1 км и менее - туман. В сухую погоду видимость может ухудшаться дымом, пылью или мглою.
  • Явления - указаны атмосферные явления, наблюдавшиеся в срок или в последний час перед сроком; фигурными скобками обозначены явления, наблюдавшиеся между сроками (за 1-3 часа до срока); квадратными скобками обозначены град или гололедные отложения с указанием их диаметра в мм.
  • Облачность - указаны через наклонную черту общая и нижняя облачность в баллах и высота нижней границы облаков в метрах; квадратными скобками обозначены формы облаков: Ci - перистые, Cs - перисто-слоистые, Cc - перисто-кучевые, Ac - высококучевые, As - высокослоистые, Sc - слоисто-кучевые, Ns - слоисто-дождевые, Cu - кучевые, Cb - кучево-дождевые. Подробнее классификацию облаков см. в Атласе облаков (PDF).
  • T - Температура воздуха - температура, измеренная на высоте 2 м над землей.
  • Td - Температура точки росы - температура, при понижении до которой содержащийся в воздухе водяной пар достигнет насыщения.
  • f - Относительная влажность воздуха - влажноcть воздуха, измеренная на высоте 2 м над землей.
  • Te - Эффективная температура - температура, которую ощущает одетый по сезону человек в тени. Характеристика душности погоды. При расчете учитывается влияние влажности воздуха и скорости ветра на теплоощущения человека.
  • Tes - Эффективная температура на солнце - температура, которую ощущает человек, с поправкой на солнечный нагрев. Характеристика знойности погоды. Зависит от высоты солнца над горизонтом, облачности и скорости ветра. Ночью, в пасмурную погоду, а также при ветре 12 м/с и более поправка равна нулю.
  • P - Атмосферное давление - приведенное к уровню моря атмосферное давление.
  • Po - Атмосферное давление - измеренное на уровне метеостанции атмосферное давление.
  • Tmin - Минимальная температура - минимум температуры воздуха на высоте 2 м над землей.
  • Tmax - Максимальная температура - максимум температуры воздуха на высоте 2 м над землей.
  • R - Количество осадков - Количество выпавших осадков за период времени, мм. При наведении курсора мыши на число - период времени, за который выпало указанное количество осадков.
  • R24 - Количество осадков - Количество выпавших осадков за 24 часа, мм.
  • S - Снежный покров - Высота снежного покрова, см. При наведении курсора мыши на число - состояние снежного покрова и степень покрытия местности в баллах.